Weather Roundup
Issued by NWS Chicago, IL

Home | Current Version | Previous Version | Graphics & Text | Print | Product List | Glossary On
Versions: 1 2 3 4 5 6 7 8 9 10 11 12 13 14 15 16 17 18 19 20 21 22 23 24 25 26 27 28 29 30 31 32 33 34 35 36 37 38 39 40 41 42 43 44 45 46 47 48 49 50
535
NZUS59 KLOT 210604
HRRLOT

CHICAGO AREA WEATHER ROUNDUP
NATIONAL WEATHER SERVICE CHICAGO/ROMEOVILLE IL
100 AM CDT SAT OCT 21 2017

NOTE: "FAIR" INDICATES FEW OR NO CLOUDS BELOW 12,000 FEET WITH NO
SIGNIFICANT WEATHER AND/OR OBSTRUCTIONS TO VISIBILITY.

* THESE STATIONS ARE NOT UNDER NWS QUALITY CONTROL. THEY ALSO MAY NOT
  REPORT WEATHER SUCH AS PRECIPITATION OR FOG.

ILZ005-006-012>014-019>023-210700-
NORTHEAST ILLINOIS

CITY           SKY/WX    TMP DP  RH WIND       PRES   REMARKS
OHARE          CLOUDY    65  48  54 S15       30.04F
6HR MIN TEMP:  65; 6HR MAX TEMP:  70;

MIDWAY         CLOUDY    66  49  54 S15G22    30.06S
6HR MIN TEMP:  66; 6HR MAX TEMP:  73;

AURORA         CLOUDY    60  49  66 S7        30.06R
6HR MIN TEMP:  59; 6HR MAX TEMP:  68;

LANSING*       MOCLDY    60  51  71 S10       30.08S
JOLIET*        CLOUDY    64  51  60 S9        30.07R
WAUKEGAN       CLOUDY    65  48  54 S13       30.03S
6HR MIN TEMP:  65; 6HR MAX TEMP:  69;

DUPAGE AIRPORT CLOUDY    63  49  60 S13       30.06R
6HR MIN TEMP:  61; 6HR MAX TEMP:  67;

WHEELING       MOCLDY    67  49  52 S10       30.05F
6HR MIN TEMP:  67; 6HR MAX TEMP:  69;

KANKAKEE*      CLOUDY    60  49  65 S9        30.10R
MORRIS*        CLOUDY    60  49  66 S5        30.06R
NORTHERLY ISL    N/A     66  46  48 SW13        N/A
$$

WIZ051-052-058>065-066-070>072-210700-
SOUTHEAST WISCONSIN

CITY           SKY/WX    TMP DP  RH WIND       PRES   REMARKS
MILWAUKEE      CLOUDY    65  48  54 S12       30.02F
6HR MIN TEMP:  65; 6HR MAX TEMP:  69;

KENOSHA*       CLOUDY    66  47  50 S10       30.03S
RACINE*        CLOUDY    66  48  52 S12G20    30.04S
WEST BEND      CLOUDY    63  45  51 SW7       30.01R
$$

INZ001>003-010>013-019-020-210700-
NORTHWEST INDIANA

CITY           SKY/WX    TMP DP  RH WIND       PRES   REMARKS
GARY*          MOCLDY    65  46  49 S8        30.08S
6HR MIN TEMP:  65; 6HR MAX TEMP:  70;

MICHIGAN CITY* NOT AVBL
RENSSELAER*    NOT AVBL
VALPARAISO     PTCLDY    60  49  66 S8        30.11S
$$

LMZ740>746-210700-
SOUTHERN LAKE MICHIGAN

STATION/POSITION TIME  SKY/WX   TEMP WIND        PRES    VSBY
                                AIR  DIR/SP/G
                 (UTC)          (F)  (DEG/KT/KT) (MB)    (MI)
HARRISON CRIB    0540            67  190/ 19/ 20   N/A
BURNHAM HARBOR   0600            67  190/ 13/ 18   N/A
CALUMET HARBOR   0530            64  180/  7/ 11 1017.4S
BURNS HARBOR     0540            63  190/ 13/ 17 1019.0F
MICHIGAN CITY    0540            62  160/  9/ 11   N/A
$$

ABBREVIATIONS USED IN REMARKS
   TC - TEMPERATURE IN CELSIUS
  WCI - WIND CHILL INDEX
   HX - HEAT INDEX
  VSB - VISIBILITY
$$




USA.gov is the U.S. government's official web portal to all federal, state and local government web resources and services.